#timestamp,LO_Frequency,Hit,StdDev 
1696615215.7,286047001.0,P
1696615235.6,286047001.2,N
1696615255.4,286046998.5,N
1696615275.2,286047002.8,N
1696615295.1,286047002.7,N
1696615296.0,286047002.7,N
1696615315.8,286047001.0,N
1696615335.7,286047001.0,N
1696615355.5,286047001.2,N
1696615375.3,286047000.9,N
1696615395.2,286047001.2,N
1696615415.0,286047000.4,N
1696615415.9,286047000.4,N
1696615435.8,286047000.8,N
1696615455.6,286046998.8,N
1696615475.4,286047000.7,N
1696615495.3,286046998.5,N
1696615515.1,286046998.3,N
1696615535.8,286046998.8,N
1696615555.7,286046996.9,N
1696615575.5,286046999.1,N
1696615595.4,286046998.2,N
1696615615.2,286046998.6,N
1696615635.0,286046998.1,N
1696615635.9,286046998.1,N
1696615655.8,286046998.5,N
1696615675.6,286047000.8,N
1696615695.5,286046998.2,N
1696615715.3,286046998.3,N
1696615735.1,286046998.9,N
1696615755.9,286046998.8,N
1696615775.7,286046998.1,N
1696615795.5,286046998.5,N
1696615815.4,286046998.6,N
1696615835.2,286046998.3,N
1696615855.1,286047001.2,N
1696615856.0,286047001.2,N
1696615875.8,286046998.2,N
1696615895.6,286046998.3,N
1696615915.5,286046996.8,N
1696615935.3,286046996.6,N
1696615955.1,286046996.9,N
1696615975.9,286046998.7,N
1696615995.7,286046999.3,N
1696616015.6,286046996.5,Y
1696616035.4,286046998.5,P
1696616055.2,286046998.1,P
1696616075.1,286046998.5,P
1696616076.0,286046998.5,Y
1696616095.8,286047002.3,P
1696616115.7,286047000.0,N
1696616135.5,286047000.2,N
1696616155.3,286047000.1,N
1696616175.2,286047000.0,N
1696616195.0,286047001.9,N
1696616195.9,286047001.9,N
1696616215.7,286047001.6,N
1696616235.6,286047001.8,N
1696616255.4,286047002.3,N
1696616275.3,286047002.2,N
1696616295.1,286047001.8,N
1696616296.0,286047001.8,N
1696616315.8,286047002.5,N
1696616335.7,286047002.7,N
1696616355.5,286047002.3,N
1696616375.3,286047002.4,N
1696616395.2,286046999.9,N
1696616415.0,286047000.5,N
1696616415.9,286047000.5,N
1696616435.8,286046999.7,N
1696616455.6,286047002.4,N
1696616475.4,286047000.2,N
1696616495.3,286046999.7,N
1696616515.1,286047000.9,N
1696616535.8,286047000.5,N
1696616555.7,286047000.6,N
1696616575.5,286047002.8,N
1696616595.4,286047000.3,N
1696616615.2,286046999.8,N
1696616635.0,286047000.0,N
1696616635.9,286047000.0,N
1696616655.8,286047001.2,N
1696616675.6,286046998.7,N
1696616695.5,286046998.7,N
1696616715.3,286046998.3,N
1696616735.1,286046999.2,N
1696616755.9,286046998.5,N
1696616775.7,286046998.6,N
1696616795.6,286047000.8,N
1696616815.4,286046998.9,N
1696616835.2,286046998.8,N
1696616855.1,286047001.2,N
1696616856.0,286047001.2,N
1696616875.8,286046998.6,N
1696616895.7,286047001.0,N
1696616915.5,286047000.3,N
1696616935.3,286046999.7,N
1696616955.2,286047002.3,N
1696616975.0,286047002.1,N
1696616975.9,286047002.1,N
1696616995.7,286047001.9,N
1696617015.6,286047001.6,N
1696617035.4,286047004.4,Y
1696617055.3,286047003.9,P
1696617075.1,286047004.0,N
1696617076.0,286047004.0,N
1696617095.8,286047004.4,N
1696617115.7,286047004.1,N
1696617135.5,286047001.3,N
1696617155.3,286047004.1,N
1696617175.2,286047003.1,N
1696617195.0,286047002.9,N
1696617195.9,286047002.9,N
1696617215.8,286047005.6,Y
1696617235.6,286047002.0,P
1696617255.4,286047001.5,N
1696617275.3,286047002.6,P
1696617295.1,286047001.8,N
1696617315.9,286047001.9,Y
1696617335.7,286047000.0,P
1696617355.5,286046999.8,N
1696617375.4,286047002.7,N
1696617395.2,286047000.2,N
1696617415.1,286047002.5,N
1696617416.0,286047002.5,N
1696617435.8,286046999.8,N
1696617455.6,286047001.5,N
1696617475.5,286047004.3,Y
1696617495.3,286047002.7,P
1696617515.2,286047002.0,N
1696617535.9,286047002.4,P
1696617555.7,286047002.4,Y
1696617575.6,286047001.0,P
1696617595.4,286046999.9,N
1696617615.2,286046999.7,N
1696617635.1,286047000.4,N
1696617636.0,286047000.4,N
1696617655.8,286047000.0,N
1696617675.7,286046999.9,N
1696617695.5,286047002.7,Y
1696617715.3,286047000.1,P
1696617735.2,286047000.2,N
1696617755.0,286047000.9,P
1696617755.9,286047000.9,N
1696617775.8,286047000.3,N
1696617795.6,286047000.3,N
1696617815.4,286047000.3,N
1696617835.3,286047000.3,N
1696617855.1,286047000.4,N
1696617875.8,286047002.8,Y
1696617895.7,286046999.7,P
1696617915.5,286047002.3,P
1696617935.4,286047000.2,N
1696617955.2,286047000.1,N
1696617975.0,286047000.9,N
1696617975.9,286047000.9,N
1696617995.8,286047000.9,N
1696618015.6,286046999.9,N
1696618035.4,286047002.8,Y
1696618055.3,286047002.4,P
1696618075.1,286047000.1,N
1696618095.9,286047002.4,N
1696618115.7,286047004.4,Y
1696618135.5,286047001.0,P
1696618155.4,286047000.3,N
1696618175.2,286047000.4,N
1696618195.1,286046998.1,Y
1696618196.0,286046998.1,P
1696618215.8,286046999.5,N
1696618235.6,286046999.4,N
1696618255.5,286046997.4,N
1696618275.3,286046997.4,N
1696618295.1,286046996.6,N
1696618315.9,286046999.5,N
1696618335.7,286046999.2,N
1696618355.6,286046996.9,N
1696618375.4,286046998.3,N
1696618395.2,286046998.9,N
1696618415.1,286046998.9,N
1696618416.0,286046998.9,N
1696618435.8,286047000.8,N
1696618455.7,286046998.8,N
1696618475.5,286046998.8,N
1696618495.4,286046996.9,N
1696618515.2,286046998.5,N
1696618535.0,286046999.0,N
1696618535.9,286046999.0,N
1696618555.8,286046998.3,N
1696618575.6,286046998.4,N
1696618595.4,286046999.0,N
1696618615.3,286046998.7,N
1696618635.1,286046999.3,N
1696618655.9,286046999.0,N
1696618675.7,286046999.3,N
1696618695.5,286046996.6,Y
1696618715.4,286046998.5,P
1696618735.2,286047002.8,P
1696618755.0,286047000.3,N
1696618755.9,286047000.3,N
1696618775.8,286047000.4,N
1696618795.6,286046999.9,N
